PILOTS ONLINE: 412    ATC ONLINE: 46

KGEU

Glendale Municipal Airport

Location

City Glendale
Country  United States
Latitude 33° 31' 36" N
Longitude 112° 17' 41" W
Elevation 1071 ft
Type Small Airport

Map

Weather

METAR
2014/09/02 13:47
KGEU 021347Z 00000KT 20SM SKC 26/11 A2984
TAF
No TAF available

Runways

01/19 7099 ft / 100 ft

Outbound flights

Callsign Flying to Pilot ATD/STD ETA Aircraft

Inbound flights

Callsign Flying from Pilot ATD ETA Aircraft